Find Starlink 11350

NORAD ID: 61540 Int'l Des: 2024-184 Owner: SPXS Country: US Constellation: starlink operational
LEOCIRCULAR

实时位置

正在加载3D地球...

关于 Starlink 11350

正在加载描述...

即将过境

Passes for default location (London). Set your location on the main map for personalized predictions.

高度历史

Loading altitude history...

两行轨道根数

1 61540U 24184J 26126.50992573 -.00003619 00000-0 -25039-4 0 9996
2 61540 53.1589 310.8609 0001212 117.0104 243.1037 15.69696036 89509
Epoch: May 6, 2026 • Age: 7 hours

当前状态

高度 359.4 km
速度 7.70 km/s
星下点 11.93°N, 30°W
发射日期 Oct 15, 2024
运行时间 1.5 years
类型 internet

技术详情

分类 Payload
质量 960.00 kg
干质量 910.00 kg
总质量 960.00 kg
长度 0.30 m
直径 4.10 m
跨度 29.00 m
形状 Box + pan
制造商 SPXS
平台类型 Starlink V2MD
阶段状态 In Orbit
所有者/国家 SPXS/US

Most Searched